GSAT0204 (GALILEO 8)

Last updated on Mon Sep 15 2025 00:02:34 GMT+0000 (Coordinated Universal Time)

1 40545U 15017B 25257.18702935 -.00000102 00000+0 00000+0 0 9990 2 40545 56.8742 349.1405 0005603 240.3351 119.6443 1.70475649 27549
UTC large
Height (km)
Speed (km/s)
/
Latitude / Longitude
Inclination (degrees)
Orbital Period (minutes)
Azimuth
Elevation
Range (km)
Doppler Factor

Next 0 passes for location: London (51.5072 / 0.1276)

Sorry there are no passes over London.